www.pogodaiklimat.ru
Время
и дата
01:54 07.08
02:54 07.08
03:54 07.08
04:54 07.08
05:54 07.08
06:54 07.08
07:54 07.08
08:54 07.08
09:54 07.08
10:04 07.08
10:23 07.08
10:54 07.08
11:54 07.08
12:54 07.08
13:54 07.08
14:54 07.08
15:54 07.08
16:54 07.08
17:54 07.08
18:54 07.08
19:54 07.08
20:54 07.08
21:54 07.08
22:54 07.08
23:54 07.08
00:54 08.08
01:54 08.08
02:54 08.08
03:54 08.08
04:54 08.08
05:54 08.08
06:54 08.08
07:43 08.08
07:54 08.08
08:54 08.08
09:54 08.08
10:54 08.08
11:54 08.08
12:54 08.08
13:54 08.08
14:54 08.08
15:54 08.08
16:54 08.08
17:54 08.08
18:54 08.08
19:54 08.08
20:54 08.08
21:54 08.08
Ветер
(напр.,м/с)
Видим. Явления Облачность Т
(С)
Тd
(С)
f
(%)
Тe
(С)
Тes
(С)
Комфортность P
(гПа)
Po
(гПа)
Тmin
(С)
Tmax
(С)
R
(мм)
R24
(мм)
S
(см)
ЮЗ 2 16 км 5/2 1800 м
[Ac Ci]
+22.8 +21.1 90 +30 +30 очень
душно
1019.4 1000.0
ЮЗ 1 16 км 5/2 1800 м
[Ac Ci]
+22.8 +20.6 87 +30 +30 очень
душно
1019.2 999.6
ЮЗ 1 16 км 2/0 6600 м
[Ci]
+22.8 +20.6 87 +30 +30 очень
душно
1019.2 999.6
ЮЗ 2 16 км ясно +22.2 +20.6 91 +29 +29 очень
душно
1019.6 1000.0
ЮЗ 2 16 км 5/2 1050 м
[Ac Ci]
+22.8 +20.6 87 +30 +30 очень
душно
1019.9 1000.3
ЮЗ 2 16 км 8/2 1200 м
[Ac Ci]
+24.4 +21.1 82 +31 +31 очень
душно
1019.8 1000.3 +22.2 +24.4
ЮЗ 3 16 км 8/2 1650 м
[Ac Ci]
+26.1 +21.7 77 +34 +34 очень
душно
1019.5 1000.0
ЮЗ 2 16 км 8/2 1200 м
[Ac Ci]
+27.8 +22.2 72 +36 +38 очень
душно
1019.3 999.6
ЮЗ 2 16 км 5/5 750 м +28.9 +22.2 67 +38 +40 очень
душно
1019.5 1000.0
ЮЗ 2 16 км 8/8 810 м
[Ac Ci]
+29.4 +22.2 65 +38 +40 очень
душно
1000.0
З 2 16 км 8/8 810 м
[Ac Ci]
+30.0 +21.7 61 +38 +40 очень
душно
999.6
З 3 16 км 8/8 960 м
[Ac Ci]
+30.0 +21.7 61 +38 +39 очень
душно
1019.0 999.6
ЮЗ 2 16 км 8/8 1230 м
[Ac Ci]
+32.2 +20.6 50 +39 +41 очень
душно
1018.3 999.0
З 2
{4}
16 км 8/5 1230 м
[Ac Ci]
+32.2 +20.6 50 +39 +43 очень
душно
1018.0 998.6 +24.4 +32.8
ЮЗ 2 16 км 8/2 1650 м
[Ac Ci]
+32.8 +21.1 50 +40 +45 очень
душно
1017.2 997.6
ЮЗ 2 16 км 8/5 1410 м
[Ac Ci]
+32.2 +20.6 50 +39 +42 очень
душно
1016.4 997.0
З 3 16 км 8/5 1410 м
[Ci]
+31.7 +20.6 52 +39 +40 очень
душно
1016.0 996.6
ЮЗ 2 16 км 8/2 1410 м
[Ac Ci]
+31.7 +21.1 53 +39 +42 очень
душно
1015.7 996.3
З 3 16 км 8/2 1410 м
[Ac Ci]
+32.2 +21.1 52 +40 +40 очень
душно
1015.6 996.3
З 2 16 км 10/2 1410 м
[Ac Ci]
+30.0 +22.2 63 +39 +39 очень
душно
1015.9 996.6 +30.0 +33.9
З 1 16 км 8/0 4500 м
[Ac Ci]
+27.8 +22.2 72 +36 +36 очень
душно
1016.1 996.6
ЮЗ 1 16 км 8/0 4500 м
[Ac Ci]
+26.1 +21.7 77 +34 +34 очень
душно
1016.4 997.0
ЮЗ 1 16 км 8/0 4500 м
[Ac Ci]
+25.0 +21.7 82 +32 +32 очень
душно
1016.1 996.6
ЮЗ 1 16 км 5/0 4500 м
[Ac Ci]
+24.4 +21.7 85 +31 +31 очень
душно
1015.7 996.3
ЮЗ 1 16 км 5/0 4200 м
[Ac Ci]
+24.4 +21.7 85 +31 +31 очень
душно
1015.8 996.3
ЮЗ 1 16 км ясно +23.9 +21.7 88 +31 +31 очень
душно
1015.4 996.0 +23.9 +30.0
ЮЗ 1 16 км 8/0 4200 м
[Ac]
+24.4 +21.7 85 +31 +31 очень
душно
1015.1 995.6
ЮЗ 2 16 км ясно +23.9 +21.1 84 +30 +30 очень
душно
1014.9 995.6
ЮЗ 2 16 км ясно +23.9 +21.1 84 +30 +30 очень
душно
1014.4 995.0
ЮЗ 2 16 км 5/0 4200 м
[Ac]
+23.9 +21.1 84 +30 +30 очень
душно
1014.3 995.0
ЮЗ 2 16 км 8/0 3600 м
[Ac Ci]
+23.9 +21.1 84 +30 +30 очень
душно
1014.5 995.0
ЮЗ 2 16 км 8/0 3900 м
[Ac]
+24.4 +21.7 85 +31 +31 очень
душно
1014.7 995.3 +23.3 +24.4
ЮЗ 3 16 км 8/8 750 м
[Ac]
+26.1 +22.2 79 +34 +34 очень
душно
995.3
ЮЗ 2 16 км 8/5 750 м
[Ac]
+26.7 +22.2 76 +35 +35 очень
душно
1014.5 995.0
З 4
{5}
16 км 5/5 750 м +28.9 +21.1 63 +36 +37 очень
душно
1014.0 994.7
З 3
{4}
16 км 5/5 900 м +30.0 +21.1 59 +38 +39 очень
душно
1013.7 994.3
ЮЗ 3
{4}
16 км 8/5 1050 м
[Ac]
+31.1 +20.6 54 +38 +40 очень
душно
1013.1 993.7
ЮЗ 3
{5}
16 км слабый дождь 10/10 1230 м +28.3 +21.1 65 +36 +36 очень
душно
1012.6 993.3
З 4
{6}
16 км 10/8 1380 м
[Ac]
+28.9 +20.0 59 +35 +35 очень
душно
1012.1 992.7 +24.4 +31.7
З 3 16 км 10/10 630 м +27.2 +20.6 67 +34 +34 очень
душно
1011.8 992.3
З 5
{6}
16 км 8/8 900 м
[Ac]
+27.8 +21.1 67 +35 +35 очень
душно
1011.0 991.7
З 3
{5}
16 км 8/5 990 м
[Ac]
+28.3 +21.1 65 +36 +37 очень
душно
1010.3 991.0
З 4 16 км 8/8 1140 м +30.0 +21.7 61 +38 +39 очень
душно
1009.9 990.7
ЮЗ 3 16 км 8/2 1290 м
[Ac Ci]
+30.0 +21.1 59 +38 +38 очень
душно
1009.7 990.3
ЮЗ 2 16 км 5/2 1650 м
[Ac Ci]
+28.9 +21.1 63 +36 +37 очень
душно
1009.2 990.0 +26.1 +30.6
ЮЗ 2 16 км 10/10 1470 м +28.3 +21.1 65 +36 +36 очень
душно
1008.7 989.3
ЮЗ 3 16 км 8/2 1800 м
[Ac]
+25.6 +22.2 82 +33 +33 очень
душно
1009.8 990.7
ЮЗ 2 16 км 10/10 1320 м +25.0 +22.2 84 +32 +32 очень
душно
1009.9 990.7 0.3
Местоположение метеостанции Greater Rochester International Airport: широта 43.1167 долгота -77.6767 высота над уровнем моря 163 м.
В архиве по умолчанию представлена погода в Рочестере за последние 1-2 суток. Обновление информации о фактической погоде в базе происходит ежечасно! Архивные данные за месяц целиком и за предыдущие месяцы Вы можете получить, выбрав интересующий диапазон дат из раскрывающегося списка и нажав кнопку "Ввод!".
Внимание! Архив погоды МЕТАР в базе сайта по станциям, не включенным в климатический монитор, хранится не более 60 дней. Нет смысла пытаться выбрать более раннюю дату.
*Определитесь, кто Вы:
Внимание! Время в таблицах - местное (без учета летнего времени). Для получения всемирного времени необходимо вычесть поправку, которая равна -5 ч.
Смотрите также архив погоды в соседних городах и на ближайших метеорологических станциях:
Партнеры нашего сайта:      
Пояснения к столбцам:
  • Ветер - указаны скорость ветра в м/с - средняя за 10 мин, порывы в срок и между сроками (в фигурных скобках) и направление, откуда дует ветер: С - северный,
  • СВ - северо-восточный, В - восточный, ЮВ - юго-восточный, Ю - южный, ЮЗ - юго-западный, З - западный, СЗ - северо-западный.
  • Видимость - горизонтальная дальность видимости в метрах или километрах. При видимости от 1 до 10 км при отсутствии осадков обычно наблюдается дымка, при ухудшении видимости до 1 км и менее - туман. В сухую погоду видимость может ухудшаться дымом, пылью или мглою.
  • Явления - указаны атмосферные явления, наблюдавшиеся в срок или в последний час перед сроком; фигурными скобками обозначены явления, наблюдавшиеся между сроками (за 1-3 часа до срока); квадратными скобками обозначены град или гололедные отложения с указанием их диаметра в мм.
  • Облачность - указаны через наклонную черту общая и нижняя облачность в баллах и высота нижней границы облаков в метрах; квадратными скобками обозначены формы облаков: Ci - перистые, Cs - перисто-слоистые, Cc - перисто-кучевые, Ac - высококучевые, As - высокослоистые, Sc - слоисто-кучевые, Ns - слоисто-дождевые, Cu - кучевые, Cb - кучево-дождевые. Подробнее классификацию облаков см. в Атласе облаков (PDF).
  • T - Температура воздуха - температура, измеренная на высоте 2 м над землей.
  • Td - Температура точки росы - температура, при понижении до которой содержащийся в воздухе водяной пар достигнет насыщения.
  • f - Относительная влажность воздуха - влажноcть воздуха, измеренная на высоте 2 м над землей.
  • Te - Эффективная температура - температура, которую ощущает одетый по сезону человек в тени. Характеристика душности погоды. При расчете учитывается влияние влажности воздуха и скорости ветра на теплоощущения человека.
  • Tes - Эффективная температура на солнце - температура, которую ощущает человек, с поправкой на солнечный нагрев. Характеристика знойности погоды. Зависит от высоты солнца над горизонтом, облачности и скорости ветра. Ночью, в пасмурную погоду, а также при ветре 12 м/с и более поправка равна нулю.
  • P - Атмосферное давление - приведенное к уровню моря атмосферное давление.
  • Po - Атмосферное давление - измеренное на уровне метеостанции атмосферное давление.
  • Tmin - Минимальная температура - минимум температуры воздуха на высоте 2 м над землей.
  • Tmax - Максимальная температура - максимум температуры воздуха на высоте 2 м над землей.
  • R - Количество осадков - Количество выпавших осадков за период времени, мм. При наведении курсора мыши на число - период времени, за который выпало указанное количество осадков.
  • R24 - Количество осадков - Количество выпавших осадков за 24 часа, мм.
  • S - Снежный покров - Высота снежного покрова, см. При наведении курсора мыши на число - состояние снежного покрова и степень покрытия местности в баллах.